{"data":{"norad_id":52470,"intl_designator":"2022-049V","name":"STARLINK-3859","alt_names":[],"object_type":"PAYLOAD","status":"ACTIVE","operator":null,"country":"US","launch_date":"2022-05-06","launch_site_code":"AFETR","launch_vehicle":null,"mission":null,"orbit_class":"UNKNOWN","rcs_meters":null,"size_class":null,"mass_kg":null,"dimensions":null,"purposes":["comms"],"wikipedia_slug":null,"has_3d_model":false,"image_url":null,"decayed_at":null,"tle_current":{"epoch":"2026-05-25T02:00:54.812736Z","epoch_age_seconds":61155,"freshness":"FRESH","line1":"1 52470U 22049V   26145.08396774 -.00001201  00000+0 -57401-4 0  9993","line2":"2 52470  53.2161  76.1697 0001576  86.8284 273.2889 15.08834553223782","mean_motion":15.08834553,"eccentricity":0.0001576,"inclination_deg":53.2161,"raan_deg":76.1697,"arg_perigee_deg":86.8284,"mean_anomaly_deg":273.2889,"bstar":-5.7401e-5,"rev_number":22378,"period_min":95.437899214123,"perigee_km":538.66977774085,"apogee_km":540.85029888733,"semimajor_km":6917.8970383141,"source":"CELESTRAK","updated_at":"2026-05-25T13:38:17.153075Z"}}}